DW7040 Weather Reports


Display with metric or nautical units.
time (UTC)temp
F
wind
direction
speed
MPH
gust
MPH
rain 1hr
in
rain 24hr
in
rain mn
in
humidity
%
barometer
mb
20260905220003 0 242 3.0 8.0 0.00 0.00 0.00 1013.4
20260905214519 0 242 4.0 7.0 0.00 0.00 0.00 1013.5
20260905213014 0 242 2.0 5.0 0.00 0.00 0.00 1013.6
20260905211608 0 242 3.0 6.0 0.00 0.00 0.00 1013.7
20260905210028 0 243 3.0 6.0 0.00 0.00 0.00 1013.6
20260905204519 0 242 3.0 6.0 0.00 0.00 0.00 1013.7
20260905203023 0 242 2.0 5.0 0.00 0.00 0.00 1013.7
20260905201512 0 243 3.0 6.0 0.00 0.00 0.00 1013.7
20260905200056 0 243 4.0 6.0 0.00 0.00 0.00 1013.9
20260905194558 0 243 3.0 7.0 0.00 0.00 0.00 1013.9
20260905193042 0 242 3.0 8.0 0.00 0.00 0.00 1014.1
20260905191557 0 242 5.0 8.0 0.00 0.00 0.00 1014.0
20260905184525 0 242 5.0 11.0 0.00 0.00 0.00 1013.8
20260905183009 0 242 2.0 7.0 0.00 0.00 0.00 1013.9
20260905180016 0 243 4.0 7.0 0.00 0.00 0.00 1013.8
20260905174542 0 242 4.0 8.0 0.00 0.00 0.00 1013.8
20260905173007 0 242 3.0 9.0 0.00 0.00 0.00 1013.8
20260905171546 0 243 3.0 7.0 0.00 0.00 0.00 1014.0
20260905170006 0 242 2.0 6.0 0.00 0.00 0.00 1013.9
20260905164547 0 242 0.0 7.0 0.00 0.00 0.00 1013.9
20260905160019 0 242 1.0 6.0 0.00 0.00 0.00 1014.1
20260905154535 0 242 1.0 5.0 0.00 0.00 0.00 1014.2
20260905153100 0 243 0.0 7.0 0.00 0.00 0.00 1014.1
20260905151538 0 243 0.0 5.0 0.00 0.00 0.00 1014.2
20260905151503 0 242 0.0 6.0 0.00 0.00 0.00 1014.2
20260905150055 0 243 0.0 4.0 0.00 0.00 0.00 1014.0
20260905144532 0 243 0.0 5.0 0.00 0.00 0.00 1014.0
20260905143015 0 241 0.0 4.0 0.00 0.00 0.00 1014.1
20260905141512 0 242 0.0 3.0 0.00 0.00 0.00 1014.1
20260905140007 0 242 0.0 3.0 0.00 0.00 0.00 1014.2
20260905134546 0 241 0.0 3.0 0.00 0.00 0.00 1014.2
20260905133020 0 242 0.0 0.0 0.00 0.00 0.00 1014.3
20260905131528 0 242 0.0 0.0 0.00 0.00 0.00 1014.2
20260905130047 0 242 0.0 0.0 0.00 0.00 0.00 1014.3
20260905124535 0 241 0.0 0.0 0.00 0.00 0.00 1014.3
20260905123045 0 242 0.0 1.0 0.00 0.00 0.00 1014.2
20260905121507 0 240 0.0 0.0 0.00 0.00 0.00 1014.2
20260905120003 0 240 0.0 0.0 0.00 0.00 0.00 1013.8
20260905114501 0 240 0.0 0.0 0.00 0.00 0.00 1013.9
20260905113023 0 240 0.0 0.0 0.00 0.00 0.00 1013.7
20260905111543 0 240 0.0 0.0 0.00 0.00 0.00 1013.7
20260905110106 0 241 0.0 0.0 0.00 0.00 0.00 1013.7
20260905104557 0 241 0.0 0.0 0.00 0.00 0.00 1013.7
20260905103048 0 242 0.0 0.0 0.00 0.00 0.00 1013.9
20260905101540 0 243 0.0 0.0 0.00 0.00 0.00 1013.7
20260905100034 0 243 0.0 0.0 0.00 0.00 0.00 1013.6
20260905094512 0 241 0.0 0.0 0.00 0.00 0.00 1013.5
20260905093022 0 242 0.0 0.0 0.00 0.00 0.00 1013.5
20260905091504 0 240 0.0 0.0 0.00 0.00 0.00 1013.3
20260905090025 0 242 0.0 0.0 0.00 0.00 0.00 1013.2
20260905084519 0 242 0.0 0.0 0.00 0.00 0.00 1012.9
20260905083009 0 242 0.0 0.0 0.00 0.00 0.00 1012.8
20260905081600 0 242 0.0 0.0 0.00 0.00 0.00 1012.7
20260905080041 0 241 0.0 0.0 0.00 0.00 0.00 1012.5
20260905074604 0 241 0.0 0.0 0.00 0.00 0.00 1012.2
20260905073051 0 242 0.0 0.0 0.00 0.00 0.00 1012.1
20260905071544 0 241 0.0 0.0 0.00 0.00 0.00 1012.1
20260905070033 0 241 0.0 0.0 0.00 0.00 0.00 1011.9
20260905064523 0 242 0.0 0.0 0.00 0.00 0.00 1011.7
20260905063018 0 242 0.0 0.0 0.00 0.00 0.00 1011.4
20260905061504 0 0.0 0.0 0.00 0.00 0.00 1011.3
20260905054543 0 0.0 0.0 0.00 0.00 0.00 1011.0
20260905053036 0 0.0 0.0 0.00 0.00 0.00 1011.0
20260905051521 0 0.0 0.0 0.00 0.00 0.00 1010.8
20260905050033 0 0.0 0.0 0.00 0.00 0.00 1010.8
20260905044508 0 0.0 0.0 0.00 0.00 0.00 1010.6
20260905043040 0 0.0 0.0 0.00 0.00 0.00 1010.5
20260905041540 0 0.0 0.0 0.00 0.00 0.00 1010.4
20260905034528 0 0.0 0.0 0.00 0.00 0.00 1010.2
20260905033050 0 0.0 0.0 0.00 0.00 0.00 1010.0
20260905031600 0 0.0 0.0 0.00 0.00 0.00 1010.0
20260905030005 0 0.0 0.0 0.00 0.00 0.00 1009.7
20260905024525 0 0.0 0.0 0.00 0.00 0.00 1009.7
20260905023016 0 0.0 0.0 0.00 0.00 0.00 1009.7
20260905021510 0 0.0 0.0 0.00 0.00 0.00 1009.6
20260905020050 0 0.0 0.0 0.00 0.00 0.00 1009.3
20260905014557 0 0.0 0.0 0.00 0.00 0.00 1009.2
20260905013043 0 0.0 0.0 0.00 0.00 0.00 1009.1
20260905011550 0 0.0 0.0 0.00 0.00 0.00 1009.1
20260905004542 0 242 0.0 0.0 0.00 0.00 0.00 1008.8
20260905001530 0 242 0.0 0.0 0.00 0.00 0.00 1008.7
20260905000105 0 243 0.0 0.0 0.00 0.00 0.00 1008.7
20260904234544 0 242 0.0 0.0 0.00 0.00 0.00 1008.4
20260904233026 0 243 0.0 0.0 0.00 0.00 0.00 1008.1
20260904231554 0 242 0.0 0.0 0.00 0.00 0.00 1008.0
20260904230105 0 242 0.0 0.0 0.00 0.00 0.00 1007.8
20260904224533 0 242 0.0 0.0 0.00 0.00 0.00 1007.8
20260904223100 0 242 0.0 0.0 0.00 0.00 0.00 1007.9
20260904221548 0 243 0.0 0.0 0.00 0.00 0.00 1007.8